Flight Track Log - Related Links

Times and Time Zones

All times are in EDT time to prevent confusion due to time zone crossing. See the SWA3158 flight status page for this flight to view local times or setup timezone preferences in your user account.

Time Position Orientation Groundspeed Altitude Reporting Facility
EDT Latitude Longitude Course Direction KTS MPH feet Rate Location/Type
11:04AM 33.9333 -118.5167 264° West 214 246 2,800  Level Southern California TRACON
11:05AM 33.9333 -118.5833 270° West 258 297 4,400 2,239 Climbing Southern California TRACON
11:06AM 33.9214 -118.7125 264° West 264 304 8,100 2,400 Climbing Los Angeles Center
11:08AM 33.9108 -118.8053 262° West 271 312 10,400 1,742 Climbing Los Angeles Center
11:09AM 33.9008 -118.9108 264° West 323 372 11,700 1,694 Climbing Los Angeles Center
11:10AM 33.9531 -118.9997 305° West 339 390 13,900 2,177 Climbing Los Angeles Center
11:11AM 34.0194 -119.0922 311° West 359 413 16,200 2,613 Climbing Los Angeles Center
11:12AM 34.0983 -119.2022 311° West 366 421 19,300 2,468 Climbing Los Angeles Center
11:13AM 34.1683 -119.2975 312° West 378 435 21,300 1,984 Climbing Los Angeles Center
11:14AM 34.2394 -119.3958 311° West 388 447 23,400 1,839 Climbing Los Angeles Center
11:15AM 34.3100 -119.4983 310° West 397 457 25,100 1,645 Climbing Los Angeles Center
11:16AM 34.3869 -119.6019 312° West 409 471 26,800 1,548 Climbing Los Angeles Center
11:17AM 34.4622 -119.7086 311° West 415 478 28,300 1,500 Climbing Los Angeles Center
11:18AM 34.5500 -119.8047 318° Northwest 429 494 29,900 1,984 Climbing Los Angeles Center
11:19AM 34.6686 -119.9031 326° Northwest 423 487 32,400 1,902 Climbing Los Angeles Center
11:20AM 34.7633 -119.9819 326° Northwest 414 476 33,800 780 Climbing Los Angeles Center
11:21AM 34.8583 -120.0603 326° Northwest 412 474 34,000 97 Climbing Los Angeles Center
11:22AM 34.9547 -120.1389 326° Northwest 424 488 34,000  Level Los Angeles Center
11:23AM 35.0486 -120.2181 325° Northwest 419 482 34,000  Level Los Angeles Center
11:24AM 35.1431 -120.2967 326° Northwest 416 479 34,000  Level Los Angeles Center
11:25AM 35.2542 -120.3897 326° Northwest 409 471 34,000  Level Los Angeles Center
11:26AM 35.3469 -120.4692 325° Northwest 410 472 34,000  Level Los Angeles Center
11:27AM 35.4411 -120.5500 325° Northwest 417 480 34,000  Level Los Angeles Center
11:28AM 35.5364 -120.6300 326° Northwest 415 478 34,000  Level Los Angeles Center
11:29AM 35.6294 -120.7086 326° Northwest 410 472 34,000  Level Los Angeles Center
11:30AM 35.6989 -120.7675 325° Northwest 409 471 34,000  Level Oakland Center
11:31AM 35.7922 -120.8469 325° Northwest 407 468 34,000  Level Oakland Center
11:32AM 35.8858 -120.9272 325° Northwest 410 472 34,000 -1,122 Level Oakland Center
11:33AM 35.9806 -121.0089 325° Northwest 414 476 31,700 -2,244 Descending Oakland Center
11:34AM 36.0747 -121.0881 326° Northwest 411 473 29,400 -2,213 Descending Oakland Center
11:35AM 36.1639 -121.1667 325° Northwest 396 456 27,200 -2,115 Descending Oakland Center
11:36AM 36.2511 -121.2400 326° Northwest 380 437 25,100 -2,488 Descending Oakland Center
11:37AM 36.3506 -121.3289 324° Northwest 368 423 22,100 -2,732 Descending Oakland Center
11:38AM 36.4453 -121.3803 336° Northwest 369 425 19,500 -2,557 Descending Oakland Center
11:39AM 36.5422 -121.4233 340° North 367 422 16,900 -2,262 Descending Oakland Center
11:40AM 36.6317 -121.4647 340° North 344 396 14,900 -2,459 Descending Oakland Center
11:41AM 36.7158 -121.5025 340° North 324 373 11,900 -2,293 Descending Oakland Center
11:42AM 36.7994 -121.5406 340° North 319 367 10,200 -1,463 Descending Oakland Center
11:43AM 36.8697 -121.5794 336° Northwest 265 305 8,900 -1,131 Descending Oakland Center
11:44AM 36.9342 -121.6086 340° North 251 289 7,900 -488 Descending Oakland Center
11:45AM 36.9947 -121.6372 339° North 238 274 7,900 -439 Level Oakland Center
11:46AM 37.0525 -121.6639 340° North 226 260 7,000 -1,082 Descending Oakland Center
11:47AM 37.1106 -121.6911 339° North 223 257 5,700 -1,109 Descending Oakland Center
11:48AM 37.1500 -121.7000 350° North 216 249 5,300 -871 Descending Northern Cal TRACON
11:48AM 37.1672 -121.7181 320° Northwest 222 255 4,800 -848 Descending Oakland Center
11:49AM 37.2047 -121.7611 318° Northwest 198 228 4,000 -984 Descending Oakland Center
11:50AM 37.2481 -121.8078 319° Northwest 179 206 2,800 -976 Descending Oakland Center
11:51AM 37.2761 -121.8386 319° Northwest 154 177 2,000 -732 Descending Oakland Center
11:52AM 37.3031 -121.8694 318° Northwest 136 157 1,300 -683 Descending Oakland Center
11:53AM 37.3319 -121.9000 320° Northwest 134 154 600 -677 Descending Oakland Center
11:56AM 37.3500 -121.9167 North  Level FlightAware Approximate

Login

Don't have an account? Register now (free) for customized features, flight alerts, and more!